STARLINK-37158

Last updated on Sun Apr 12 2026 00:02:08 GMT+0000 (Coordinated Universal Time)

1 68343U 26059Y 26101.54978800 .00162032 00000+0 80692-3 0 9998 2 68343 53.1578 198.0068 0001426 69.1209 290.9966 15.80932989 3173
UTC large
Height (km)
Speed (km/s)
/
Latitude / Longitude
Inclination (degrees)
Orbital Period (minutes)
Azimuth
Elevation
Range (km)
Doppler Factor

Next 0 passes for location: London (51.5072 / 0.1276)

Sorry there are no passes over London.
STARLINK-37158